Seattle, WA

3:18 AM PST on December 10, 2019 (GMT -0800)
Seattle-Tacoma International

Weather History for KSEA - June, 2019

Change the Weather History Date:

Wednesday, June 5, 2019

  Actual Average Record
Temperature  
Mean Temperature 59 °F 59 °F  
Max Temperature 66 °F 68 °F 93 °F (2016)
Min Temperature 51 °F 51 °F 41 °F (1953)
Degree Days  
Heating Degree Days 6 6  
Month to date heating degree days 14 32  
Since 1 June heating degree days 14 32  
Since 1 July heating degree days 4022 4585  
Cooling Degree Days 0 0  
Month to date cooling degree days 0 0  
Year to date cooling degree days 21 6  
Since 1 June cooling degree days 0 0  
Growing Degree Days 10 (Base 50)    
Moisture  
Dew Point 45 °F    
Average Humidity 61    
Maximum Humidity 67    
Minimum Humidity 55    
Precipitation  
Precipitation T in 0.06 in 0.63 in (2012)
Month to date precipitation T 0.32  
Year to date precipitation 13.97 17.76  
Sea Level Pressure  
Sea Level Pressure 30.03 in    
Wind  
Wind Speed 9 mph (SSW)    
Max Wind Speed 18 mph    
Max Gust Speed 24 mph    
Visibility 10 miles    
Events Rain    
T = Trace of Precipitation, MM = Missing Value Source: NWS Daily Summary

Daily Weather History Graph

Daily Weather History Graph

Search for Another Location

Airport or City:

Astronomy

Jun. 05, 2019 Rise Set
Actual Time 5:14 AM PDT 9:01 PM PDT
Civil Twilight 4:34 AM PDT 9:41 PM PDT
Nautical Twilight 3:40 AM PDT 10:35 PM PDT
Astronomical Twilight 2:22 AM PDT 11:54 PM PDT
Moon 7:25 AM PDT (6/5) 11:32 PM PDT (6/5)
Length of Visible Light 17h 06m
Length of Day
15h 47m
Waxing Crescent, 7% of the Moon is Illuminated
Jun 5
Waxing Crescent
Jun 9
First Quarter
Jun 17
Full
Jun 25
Last Quarter
Jul 2
New

Hourly Weather History & Observations

Time (PDT) Temp. Dew Point Humidity Pressure Visibility Wind Dir Wind Speed Gust Speed Precip Events Conditions
12:53 AM 55.0 °F 44.1 °F 67% 30.08 in 10.0 mi South 4.6 mph - N/A   Mostly Cloudy
1:53 AM 55.9 °F 41.0 °F 57% 30.07 in 10.0 mi SSE 4.6 mph - N/A   Scattered Clouds
2:53 AM 55.0 °F 39.9 °F 57% 30.06 in 10.0 mi South 3.5 mph - N/A   Scattered Clouds
3:53 AM 55.0 °F 41.0 °F 59% 30.06 in 10.0 mi SSW 3.5 mph - N/A   Partly Cloudy
4:53 AM 53.1 °F 43.0 °F 69% 30.04 in 10.0 mi Calm Calm - N/A   Mostly Cloudy
5:53 AM 54.0 °F 41.0 °F 62% 30.04 in 10.0 mi SSW 4.6 mph - N/A   Mostly Cloudy
6:53 AM 54.0 °F 41.0 °F 62% 30.04 in 10.0 mi SSE 5.8 mph - N/A   Overcast
7:53 AM 55.9 °F 41.0 °F 57% 30.04 in 10.0 mi South 8.1 mph - N/A   Overcast
8:53 AM 55.0 °F 41.0 °F 59% 30.05 in 10.0 mi SSW 9.2 mph - 0.00 in Rain Light Rain
9:10 AM 53.1 °F 43.0 °F 69% 30.04 in 10.0 mi SW 11.5 mph - 0.00 in Rain Light Rain
9:53 AM 54.0 °F 45.0 °F 72% 30.05 in 10.0 mi South 10.4 mph - 0.00 in   Overcast
10:53 AM 59.0 °F 46.0 °F 62% 30.04 in 10.0 mi South 11.5 mph - N/A   Overcast
11:00 AM 60.1 °F 46.0 °F 60% 30.02 in 10.0 mi South 12.7 mph - N/A   Overcast
11:53 AM 62.1 °F 46.9 °F 58% 30.04 in 10.0 mi SSW 15.0 mph - N/A   Overcast
12:53 PM 63.0 °F 48.0 °F 58% 30.04 in 10.0 mi SSW 11.5 mph - N/A   Overcast
1:53 PM 63.0 °F 46.9 °F 56% 30.04 in 10.0 mi SSW 12.7 mph - N/A   Overcast
2:53 PM 64.0 °F 48.0 °F 56% 30.03 in 10.0 mi SW 11.5 mph - N/A   Mostly Cloudy
3:53 PM 64.9 °F 48.0 °F 54% 30.03 in 10.0 mi SW 10.4 mph - N/A   Mostly Cloudy
4:53 PM 64.0 °F 48.9 °F 58% 30.01 in 10.0 mi WSW 8.1 mph - N/A   Mostly Cloudy
5:53 PM 64.9 °F 48.9 °F 56% 30.01 in 10.0 mi SW 12.7 mph - N/A   Mostly Cloudy
6:53 PM 64.9 °F 48.9 °F 56% 29.99 in 10.0 mi WSW 12.7 mph 20.7 mph N/A   Mostly Cloudy
7:53 PM 61.0 °F 48.9 °F 64% 30.00 in 10.0 mi WSW 16.1 mph - N/A   Scattered Clouds
8:53 PM 57.9 °F 46.9 °F 67% 30.00 in 10.0 mi SW 13.8 mph - N/A   Scattered Clouds
9:53 PM 55.9 °F 44.1 °F 64% 30.01 in 10.0 mi SW 16.1 mph - N/A   Scattered Clouds
10:53 PM 54.0 °F 42.1 °F 64% 30.04 in 10.0 mi WSW 8.1 mph - N/A   Partly Cloudy
11:53 PM 53.1 °F 39.9 °F 61% 30.04 in 10.0 mi SW 3.5 mph - N/A   Scattered Clouds